Погода в Лужках

Россия / Рязанская область     54°39′56″N   39°20′03″E
темп.,
°C
ветер,
м/с
пор.,
м/с
влажн.,
%
обл.,
%
осадки,
мм/ч
давл.,
гПа
погр.,
м
3 марта, ср
ср300:00−1сз6129299 0.3 1010682
03:00−2сз7139499 0.4 1012686
06:00−5сз6139171 0.0 1013428
09:00−6сз6139165 0.1 1015514
12:00−3сз6108536 0.0 1015861
15:00−1зсз6109069 0.1 1015986
18:00−1з61192100 0.1 1013620
21:00−1з61291100 0.2 1013657
4 марта, чт
чт400:00−2зюз61292100 0.2 1009611
03:00−1зюз81691100 0.3 1007645
06:00+1з91694100 0.0 1003804
09:000з91689100 0.1 1002698
12:000зюз71293100 0.0 1002609
15:000з610100100 0.1 1002549
18:00−2с3698100 1.9 1001287
21:00−3с2597100 3.4 1001308
5 марта, пт
пт500:00−4сз1297100 0.6 100149
03:00−5с3596100 0.8 1002138
06:00−8ссз3493100 0.0 100571
09:00−9ссз249458 0.0 1007120
12:00−5зсз23860 0.0 1008329
15:00−3зюз348623 0.0 1009585
18:00−4зюз379699 0.3 1010274
21:00−9зсз448766 0.4 101275
6 марта, сб
сб600:00−10зсз34870 0.0 101354
03:00−11зсз34900 0.0 101444
06:00−12зсз34910 0.0 101539
09:00−11зсз36930 0.0 1016164
12:00−7сз468959 0.0 1017624
15:00−8сз468380 0.1 1017877
18:00−11зсз348768 0.1 101761
21:00−13з348533 0.1 101745
7 марта, вс
вс700:00−14юз48870 0.0 1016128
03:00−12юз612870 0.0 1014248
06:00−10юз9178268 0.0 1009523
09:00−7юз11188184 0.0 1005902
12:00−4зюз111888100 0.3 10011234
15:00−2зюз111888100 0.4 9971251
18:00−2юз102088100 0.3 9941300
21:00−5зсз71477100 2.8 996768